This is the latest recevied weather packets stored in our database for station/object SV2RIM-2. If no packets are shown the sender has not sent any weather packets the latest 10 day(s).
| Time | Temp. | Humidity | Pressure | Rain* | Wind** | Luminosity | Snow |
|---|---|---|---|---|---|---|---|
| 1787637619 | 25° C | 60% | 1015.9 hPa | - | - | - | - |
| 1787637019 | 24.44° C | 61% | 1015.7 hPa | - | - | - | - |
| 1787636419 | 23.89° C | 61% | 1015.6 hPa | - | - | - | - |
| 1787635819 | 23.89° C | 62% | 1015.7 hPa | - | - | - | - |
| 1787635219 | 23.33° C | 62% | 1015.5 hPa | - | - | - | - |
| 1787634619 | 23.33° C | 62% | 1015.5 hPa | - | - | - | - |
| 1787634019 | 22.78° C | 62% | 1015.5 hPa | - | - | - | - |
| 1787633419 | 22.78° C | 62% | 1015.6 hPa | - | - | - | - |
| 1787632819 | 22.78° C | 63% | 1015.5 hPa | - | - | - | - |
| 1787632219 | 22.22° C | 63% | 1015.5 hPa | - | - | - | - |
| 1787631619 | 22.78° C | 62% | 1015.5 hPa | - | - | - | - |
| 1787631019 | 22.78° C | 62% | 1015.1 hPa | - | - | - | - |
| 1787630419 | 22.78° C | 62% | 1015 hPa | - | - | - | - |
| 1787629819 | 22.78° C | 61% | 1014.9 hPa | - | - | - | - |
| 1787629219 | 22.22° C | 62% | 1014.9 hPa | - | - | - | - |
| 1787628619 | 22.22° C | 63% | 1014.8 hPa | - | - | - | - |
| 1787628019 | 22.22° C | 63% | 1014.7 hPa | - | - | - | - |
| 1787627419 | 22.22° C | 63% | 1014.8 hPa | - | - | - | - |
| 1787626819 | 22.22° C | 62% | 1014.8 hPa | - | - | - | - |
| 1787626219 | 22.78° C | 62% | 1014.9 hPa | - | - | - | - |
| 1787625619 | 22.78° C | 62% | 1015 hPa | - | - | - | - |
| 1787625019 | 22.78° C | 61% | 1015 hPa | - | - | - | - |
| 1787624419 | 22.78° C | 61% | 1015 hPa | - | - | - | - |
| 1787623819 | 22.78° C | 61% | 1015.1 hPa | - | - | - | - |
| 1787623219 | 22.78° C | 60% | 1015.1 hPa | - | - | - | - |
* Rain since midnight (hover to see other rain measurements)
** Current wind speed in m/s (hover to see current wind gust speed)